• In Czech Republic
  • List of Countries
  • For 7 days
  • Water Temperature
  • Satellite Maps
  • Weather Map
  • Weather Widgets
  • user-avatar
    Login

    Hourly Weather Schoten

    Today, 20 February, Tuesday

    Time Temperature Precipitation Wind Pressure Humidity
    00:00 +1°C° 0 mm 2 mps 762 mmHg 71%
    01:00 +1°C° 0 mm 2 mps 762 mmHg 72%
    02:00 +1°C° 0 mm 2 mps 762 mmHg 72%
    03:00 -1°C° 0 mm 2 mps 762 mmHg 73%
    04:00 +1°C° 0 mm 1 mps 762 mmHg 72%
    05:00 +1°C° 0 mm 1 mps 762 mmHg 72%
    06:00 -1°C° 0 mm 2 mps 763 mmHg 73%
    07:00 +1°C° 0 mm 2 mps 763 mmHg 71%
    08:00 +2°C° 0 mm 2 mps 763 mmHg 68%
    09:00 +3°C° 0 mm 2 mps 763 mmHg 65%
    10:00 +4°C° 0 mm 1 mps 763 mmHg 61%
    11:00 +5°C° 0 mm 1 mps 763 mmHg 58%
    12:00 +6°C° 0 mm 1 mps 763 mmHg 57%
    13:00 +6°C° 0 mm 1 mps 763 mmHg 56%
    14:00 +5°C° 0 mm 2 mps 763 mmHg 56%
    15:00 +5°C° 0 mm 2 mps 763 mmHg 56%
    16:00 +4°C° 0 mm 2 mps 763 mmHg 60%
    17:00 +4°C° 0 mm 2 mps 763 mmHg 63%
    18:00 +2°C° 0 mm 3 mps 764 mmHg 67%
    19:00 +1°C° 0 mm 3 mps 764 mmHg 69%
    20:00 +1°C° 0 mm 3 mps 765 mmHg 71%
    21:00 0°C° 0 mm 3 mps 766 mmHg 73%
    22:00 0°C° 0 mm 3 mps 766 mmHg 75%
    23:00 -1°C° 0 mm 3 mps 766 mmHg 77%

    Tomorrow, 21 February, Wednesday

    Time Temperature Precipitation Wind Pressure Humidity
    00:00 -1°C° 0 mm 3 mps 767 mmHg 79%
    01:00 -1°C° 0 mm 3 mps 767 mmHg 80%
    02:00 -1°C° 0 mm 3 mps 767 mmHg 81%
    03:00 -2°C° 0 mm 3 mps 767 mmHg 82%
    04:00 -2°C° 0 mm 3 mps 768 mmHg 82%
    05:00 -2°C° 0 mm 3 mps 768 mmHg 83%
    06:00 -2°C° 0 mm 3 mps 768 mmHg 83%
    07:00 -1°C° 0 mm 3 mps 768 mmHg 78%
    08:00 0°C° 0 mm 3 mps 768 mmHg 73%
    09:00 0°C° 0 mm 3 mps 768 mmHg 67%
    10:00 0°C° 0 mm 4 mps 768 mmHg 62%
    11:00 +3°C° 0 mm 4 mps 768 mmHg 57%
    12:00 +4°C° 0 mm 4 mps 768 mmHg 52%
    13:00 +4°C° 0 mm 4 mps 768 mmHg 51%
    14:00 +4°C° 0 mm 4 mps 767 mmHg 51%
    15:00 +4°C° 0 mm 4 mps 767 mmHg 50%
    16:00 +3°C° 0 mm 4 mps 767 mmHg 55%
    17:00 +2°C° 0 mm 3 mps 767 mmHg 60%
    18:00 0°C° 0 mm 3 mps 767 mmHg 65%
    19:00 0°C° 0 mm 3 mps 767 mmHg 67%
    20:00 -1°C° 0 mm 3 mps 767 mmHg 69%
    21:00 -1°C° 0 mm 3 mps 767 mmHg 70%
    22:00 -1°C° 0 mm 3 mps 767 mmHg 72%
    23:00 -2°C° 0 mm 3 mps 767 mmHg 73%

    Day after tomorrow, 22 February, Thursday

    Time Temperature Precipitation Wind Pressure Humidity
    00:00 -2°C° 0 mm 3 mps 767 mmHg 74%
    01:00 -2°C° 0 mm 3 mps 767 mmHg 74%
    02:00 -2°C° 0 mm 3 mps 767 mmHg 75%
    03:00 -2°C° 0 mm 3 mps 767 mmHg 75%
    04:00 -2°C° 0 mm 3 mps 767 mmHg 75%
    05:00 -3°C° 0 mm 4 mps 767 mmHg 75%
    06:00 -3°C° 0 mm 4 mps 767 mmHg 75%
    07:00 -2°C° 0 mm 4 mps 767 mmHg 69%
    08:00 -1°C° 0 mm 5 mps 767 mmHg 63%
    09:00 -1°C° 0 mm 5 mps 767 mmHg 57%
    10:00 0°C° 0 mm 5 mps 767 mmHg 51%
    11:00 +1°C° 0 mm 5 mps 767 mmHg 45%
    12:00 +2°C° 0 mm 6 mps 766 mmHg 39%
    13:00 +3°C° 0 mm 6 mps 766 mmHg 39%
    14:00 +3°C° 0 mm 6 mps 766 mmHg 39%
    15:00 +3°C° 0 mm 6 mps 766 mmHg 39%
    16:00 +2°C° 0 mm 5 mps 766 mmHg 43%
    17:00 0°C° 0 mm 5 mps 766 mmHg 48%
    18:00 -1°C° 0 mm 5 mps 766 mmHg 53%
    19:00 -1°C° 0 mm 5 mps 766 mmHg 56%
    20:00 -2°C° 0 mm 5 mps 767 mmHg 59%
    21:00 -2°C° 0 mm 5 mps 767 mmHg 62%
    22:00 -2°C° 0 mm 4 mps 767 mmHg 64%
    23:00 -3°C° 0 mm 4 mps 767 mmHg 66%

    23 February, Friday

    Time Temperature Precipitation Wind Pressure Humidity
    00:00 -3°C° 0 mm 4 mps 767 mmHg 68%
    01:00 -3°C° 0 mm 4 mps 766 mmHg 69%
    02:00 -3°C° 0 mm 4 mps 766 mmHg 70%
    03:00 -4°C° 0 mm 5 mps 766 mmHg 71%
    04:00 -5°C° 0 mm 5 mps 766 mmHg 71%
    05:00 -5°C° 0 mm 5 mps 766 mmHg 70%
    06:00 -5°C° 0 mm 5 mps 766 mmHg 69%
    07:00 -4°C° 0 mm 5 mps 766 mmHg 64%
    08:00 -3°C° 0 mm 6 mps 767 mmHg 59%
    09:00 -2°C° 0 mm 7 mps 767 mmHg 54%
    10:00 -1°C° 0 mm 7 mps 766 mmHg 49%
    11:00 0°C° 0 mm 7 mps 766 mmHg 44%
    12:00 +2°C° 0 mm 7 mps 766 mmHg 39%
    13:00 +2°C° 0 mm 7 mps 766 mmHg 38%
    14:00 +2°C° 0 mm 7 mps 765 mmHg 37%
    15:00 +2°C° 0 mm 7 mps 765 mmHg 37%
    16:00 +1°C° 0 mm 6 mps 765 mmHg 40%
    17:00 -1°C° 0 mm 6 mps 765 mmHg 43%
    18:00 -2°C° 0 mm 6 mps 765 mmHg 46%
    19:00 -3°C° 0 mm 6 mps 766 mmHg 46%
    20:00 -3°C° 0 mm 6 mps 766 mmHg 46%
    21:00 -3°C° 0 mm 6 mps 766 mmHg 46%
    22:00 -3°C° 0 mm 6 mps 766 mmHg 46%
    23:00 -4°C° 0 mm 6 mps 766 mmHg 46%

    24 February, Saturday

    Time Temperature Precipitation Wind Pressure Humidity
    00:00 -4°C° 0 mm 6 mps 766 mmHg 46%
    01:00 -4°C° 0 mm 6 mps 766 mmHg 46%
    02:00 -4°C° 0 mm 6 mps 766 mmHg 45%
    03:00 -4°C° 0 mm 6 mps 766 mmHg 45%
    04:00 -4°C° 0 mm 7 mps 766 mmHg 44%
    05:00 -4°C° 0 mm 7 mps 766 mmHg 43%
    06:00 -6°C° 0 mm 7 mps 766 mmHg 43%
    07:00 -4°C° 0 mm 7 mps 766 mmHg 40%
    08:00 -4°C° 0 mm 8 mps 766 mmHg 37%
    09:00 -2°C° 0 mm 8 mps 766 mmHg 34%
    10:00 -1°C° 0 mm 8 mps 766 mmHg 32%
    11:00 0°C° 0 mm 8 mps 766 mmHg 31%
    12:00 +1°C° 0 mm 8 mps 766 mmHg 29%
    13:00 +1°C° 0 mm 8 mps 766 mmHg 29%
    14:00 +2°C° 0 mm 8 mps 766 mmHg 29%
    15:00 +2°C° 0 mm 8 mps 765 mmHg 29%
    16:00 +1°C° 0 mm 8 mps 766 mmHg 31%
    17:00 -1°C° 0 mm 8 mps 766 mmHg 33%
    18:00 -2°C° 0 mm 8 mps 767 mmHg 35%
    19:00 -2°C° 0 mm 8 mps 767 mmHg 35%
    20:00 -4°C° 0 mm 8 mps 768 mmHg 35%
    21:00 -4°C° 0 mm 8 mps 768 mmHg 35%
    22:00 -4°C° 0 mm 7 mps 768 mmHg 35%
    23:00 -4°C° 0 mm 7 mps 769 mmHg 36%

    25 February, Sunday

    Time Temperature Precipitation Wind Pressure Humidity
    00:00 -6°C° 0 mm 7 mps 769 mmHg 36%
    01:00 -6°C° 0 mm 7 mps 769 mmHg 39%
    02:00 -6°C° 0 mm 7 mps 769 mmHg 42%
    03:00 -6°C° 0 mm 7 mps 769 mmHg 45%
    04:00 -6°C° 0 mm 7 mps 770 mmHg 46%
    05:00 -7°C° 0 mm 7 mps 770 mmHg 48%
    06:00 -7°C° 0 mm 7 mps 770 mmHg 49%
    07:00 -6°C° 0 mm 8 mps 771 mmHg 44%
    08:00 -6°C° 0 mm 8 mps 771 mmHg 38%
    09:00 -6°C° 0 mm 8 mps 771 mmHg 33%
    10:00 -5°C° 0 mm 8 mps 771 mmHg 29%
    11:00 -4°C° 0 mm 8 mps 771 mmHg 25%
    12:00 -2°C° 0 mm 8 mps 771 mmHg 22%
    13:00 -2°C° 0 mm 8 mps 771 mmHg 22%
    14:00 -2°C° 0 mm 8 mps 771 mmHg 22%
    15:00 -2°C° 0 mm 7 mps 771 mmHg 22%
    16:00 -3°C° 0 mm 7 mps 771 mmHg 24%
    17:00 -4°C° 0 mm 6 mps 772 mmHg 26%
    18:00 -5°C° 0 mm 6 mps 772 mmHg 29%
    19:00 -6°C° 0 mm 6 mps 772 mmHg 30%
    20:00 -6°C° 0 mm 6 mps 773 mmHg 31%
    21:00 -6°C° 0 mm 6 mps 773 mmHg 32%
    22:00 -6°C° 0 mm 6 mps 773 mmHg 32%
    23:00 -6°C° 0 mm 6 mps 773 mmHg 33%
    Show more